Terug naar catalogus

STARLINK-38078

ActiefCommunicatieSSO
NORAD 69744·PAYLOAD·🇺🇸 United States

Gelanceerd Jul 2, 2026 vanaf Vandenberg Space Force Base

Loading…

Volgende Passages (komende 24 uur)

TLE

VersSource: CelesTrak SupGP

Epoch: Sep 15, 2026, 03:45 UTC

1 69744C 26150F   26258.15673611 -.00042742  00000+0 -13256-2 0  2584
2 69744  97.2852  97.0967 0001649 100.4864 232.0957 15.33489467    15

Volg STARLINK-38078 in realtime met AllMySat

Download on the App Store